www.pogodaiklimat.ru

Погода и климат >> Архив погоды >> Россия >> Якутия >> Сого-Хая


ПОГОДА в Сого-Хае

  • Прогноз погоды в Сого-Хае
  • Монитор погоды в Сого-Хае

АРХИВ ПОГОДЫ в Сого-Хае

Время (UTC), дата Ветер
(напр.,м/с)
 
Видим.   Явления Облачность Т
(С)
Тd
(С)
f
(%)
Тe
(С)
Тes
(С)
Комфортность P
(гПа)
Po
(гПа)
Тmin
(С)
Tmax
(С)
R
(мм)
R24
(мм)
S
(см)
09 20.05 СЗ 2 50 км 3/0
[Ci fib]
+6.5 -6.1 40 +5 +8 1014.2 1003.7
12 20.05 СЗ 1 50 км ясно +5.0 -5.6 46 +4 +5 1014.6 1004.0 +7.1
15 20.05 штиль 0 50 км ясно -1.3 -8.5 58 -2 -2 1014.8 1004.0
18 20.05 штиль 0 50 км ясно -3.4 -7.0 76 -4 -4 1014.9 1004.0
21 20.05 штиль 0 50 км ясно -0.4 -3.8 78 -1 +1 1015.3 1004.6
00 21.05 штиль 0 50 км ясно +6.5 -5.3 43 +6 +16 опасность
простуды
1015.3 1004.8 -0.4
03 21.05 штиль 0 50 км 4/0
[Ci fib]
+9.6 -5.4 34 +10 +24 опасность
простуды
1014.0 1003.7
06 21.05 штиль 0 50 км 8/0
[Cs]
+11.4 -3.8 34 +11 +22 опасность
простуды
1012.3 1002.0
09 21.05 штиль 0 50 км 8/0
[Cs]
+12.0 -3.5 34 +12 +16 1010.8 1000.6
12 21.05 штиль 0 50 км 4/0
[Ci fib]
+10.4 -3.2 38 +10 +11 1010.2 999.9 +12.7
15 21.05 штиль 0 50 км 4/0
[Ci fib]
+5.2 -3.7 53 +5 +5 1009.2 998.7
18 21.05 штиль 0 50 км 8/0
[Cs]
+4.8 -3.2 56 +4 +4 1008.4 997.9
21 21.05 штиль 0 50 км 8/0
[Ac trans Cs]
+6.4 -1.0 59 +6 +7 1007.3 996.9
00 22.05 ЮВ 1 50 км 8/0
[Ac trans Cs]
+12.5 +1.8 48 +13 +18 1005.4 995.2 +4.3
03 22.05 ЮВ 1 50 км 8/0
[Ac trans Cs]
+15.6 +0.9 37 +16 +25 1002.2 992.2
06 22.05 ЮВ 2 50 км 3/0
[Ac trans]
+17.7 +1.7 34 +18 +26 999.5 989.6
09 22.05 ЮВ 1 50 км ясно +18.0 +1.2 32 +19 +23 996.8 987.0
12 22.05 ЮВ 1 50 км 4/0
[Ci fib]
+14.8 +3.1 45 +16 +16 995.8 985.8 +18.6
15 22.05 штиль 0 50 км 4/0
[Ac trans Ci fib]
+9.0 +0.3 54 +9 +9 995.3 985.1
18 22.05 штиль 0 50 км 4/0
[Ac trans Ci fib]
+6.2 +1.5 72 +6 +6 995.4 985.1
21 22.05 штиль 0 50 км 4/0
[Ac trans Ci fib]
+8.0 +3.8 75 +7 +9 995.3 985.1
00 23.05 штиль 0 50 км 4/0
[Ac trans Ci fib]
+12.1 +3.9 57 +12 +20 994.7 984.6 +5.6
03 23.05 штиль 0 50 км 8/0
[Ac trans Ci fib]
+16.0 +4.3 46 +16 +26 994.3 984.4
06 23.05 штиль 0 50 км 9/3 600 м
[Cu med, cong Ac trans Ci fib]
+17.2 +5.2 45 +17 +22 994.2 984.4
09 23.05 штиль 0 50 км 9/6 600 м
[Cb cap Ac trans]
+16.8 +4.9 45 +17 +18 994.3 984.4
12 23.05 ЮВ 1 50 км 9/5 600 м
[Cb cap Ac trans]
+11.6 +5.5 66 +12 +12 996.1 996.0 +17.6
15 23.05 штиль 0 50 км 9/6 600 м
[Cb cap Ac trans]
+9.3 +5.3 76 +9 +9 996.7 986.6
18 23.05 штиль 0 50 км 9/6 600 м
[Cb cap Ac trans]
+6.4 +4.3 86 +5 +5 997.1 986.8
21 23.05 ЮВ 1 50 км 9/4 600 м
[Cb calv Ac trans Ci fib]
+7.6 +5.1 84 +7 +7 997.1 986.9
00 24.05 ЮВ 1 50 км 9/3 600 м
[Cb calv Ac trans Ci fib]
+12.8 +5.8 62 +13 +16 997.4 987.3 +5.8
03 24.05 штиль 0 50 км 9/5 600 м
[Cb calv Ac trans Ci fib]
+14.0 +6.8 62 +14 +19 997.4 987.4
06 24.05 штиль 0 50 км 9/4 600 м
[Cb calv Ac trans Cs]
+16.0 +5.0 48 +16 +20 997.3 987.4
09 24.05 ЮВ 1 50 км 10/5 600 м
[Cb calv Ac trans Cs]
+12.6 +7.0 69 +13 +14 998.5 988.4
12 24.05 штиль 0 50 км 9/4 600 м
[Cb calv Ac trans]
+11.2 +7.2 76 +11 +11 999.4 989.3 +16.5
15 24.05 штиль 0 50 км 9/5 600 м
[Cb calv Ac trans]
+8.8 +6.2 84 +8 +8 1000.1 989.8
18 24.05 штиль 0 50 км 6/3 600 м
[Cb calv Ac trans]
+5.4 +4.2 92 +4 +4 1001.1 990.8
21 24.05 штиль 0 50 км 6/0
[Ac trans]
+6.0 +4.9 93 +5 +6 1004.6 991.3
00 25.05 СЗ 1 50 км 6/0
[Ac trans]
+13.0 +6.3 64 +13 +19 1002.5 992.4 +5.0
03 25.05 СЗ 1 50 км 8/4 600 м
[Cu med, cong Ac trans]
+15.7 +5.2 50 +17 +22 1003.1 993.0
06 25.05 СЗ 2 50 км 8/5 600 м
[Cu med, cong Ci fib]
+16.6 +5.4 47 +17 +21 1003.4 993.4
09 25.05 СЗ 3 50 км 9/8 600 м
[Cb cap Ci fib]
+15.2 +4.2 48 +15 +15 1004.6 994.6
12 25.05 СЗ 3 50 км 9/6 600 м
[Cb cap Ci fib]
+12.2 +4.0 57 +11 +11 1006.9 996.7 +17.4
15 25.05 СЗ 1 50 км 9/6 600 м
[Cb cap Ci fib]
+8.8 +4.5 74 +8 +8 1008.0 997.6
18 25.05 СЗ 2 50 км 8/0
[Ac trans]
+6.2 +2.0 74 +4 +4 1008.7 998.3
21 25.05 СЗ 2 50 км 8/0
[Ac trans Ci fib]
+5.6 +1.0 72 +3 +4 1009.6 999.2
00 26.05 СЗ 2 50 км 8/0
[Ac trans Ci fib]
+8.0 +2.5 68 +6 +12 1011.0 1000.6 +5.0
03 26.05 СЗ 3 50 км 9/0
[Cs]
+10.6 +1.0 51 +9 +17 1011.6 1001.3
06 26.05 СЗ 4 50 км 9/0
[Cs]
+14.1 +1.1 41 +13 +18 1011.6 1001.5
09 26.05 СЗ 4 50 км 6/0
[Ci fib]
+14.3 +2.0 43 +13 +15 1011.8 1001.7
12 26.05 СЗ 3 50 км 3/0
[Ci fib]
+12.0 +1.1 47 +11 +11 1012.9 1002.6 +14.8
15 26.05 СЗ 2 50 км ясно +8.4 +0.7 58 +7 +7 1013.4 1003.0
18 26.05 СЗ 1 50 км 4/0
[Ci fib]
+5.2 -0.2 68 +4 +4 1013.7 1003.1
21 26.05 СЗ 1 50 км 4/0
[Ci fib]
+7.9 +0.4 59 +8 +9 1014.3 1003.9
00 27.05 СЗ 2 50 км 3/0
[Ci fib]
+14.4 +2.5 45 +14 +21 1014.2 1004.0 +4.7
03 27.05 СЗ 2 50 км 3/3 600 м
[Cu med, cong]
+17.6 +2.8 37 +18 +26 1014.0 1004.0
06 27.05 В 1 50 км 6/6 600 м
[Cu med, cong]
+18.8 +1.9 32 +20 +25 1012.0 1002.0

 

Местоположение метеостанции Сого-Хая (Якутия, Россия): широта 64.28 долгота 126.40 высота над уровнем моря 85 м.

В архиве по умолчанию представлена погода в Сого-Хае за последнюю неделю. Архивные данные за месяц целиком и за предыдущие месяцы, начиная с января 2011 года, Вы можете получить, выбрав интересующий диапазон дат из раскрывающегося списка и нажав кнопку "Ввод!".


*Определитесь, кто Вы:
робот инопланетянин человек

Внимание! Время в таблицах - всемирное. Для получения местного времени необходимо прибавить поправку, которая равна 9 ч.

Смотрите также архив погоды в соседних городах и на ближайших метеорологических станциях:

Погода в Сангаре (Якутия, Россия) (61 км)
Погода в Хатырык-Хомо (Якутия, Россия) (86 км)
Погода в Бестяхской Звероферме (Якутия, Россия) (157 км)
Погода в Батамае (Якутия, Россия) (169 км)
Погода в Сеген-Кюеле (Якутия, Россия) (192 км)
Погода в Себян-Кюеле (Якутия, Россия) (205 км)
Погода в Бердигестяхе (Якутия, Россия) (226 км)
Погода в Намцах (Якутия, Россия) (235 км)
Погода в Вилюйске (Якутия, Россия) (241 км)
Погода в Тонгулахе (Якутия, Россия) (279 км)

Пояснения к столбцам:

Ветер - указаны скорость ветра в м/с - средняя за 10 мин, порывы в срок и между сроками (в фигурных скобках) и направление, откуда дует ветер: С - северный, СВ - северо-восточный, В - восточный, ЮВ - юго-восточный, Ю - южный, ЮЗ - юго-западный, З - западный, СЗ - северо-западный.
Видимость - горизонтальная дальность видимости в метрах или километрах. При видимости от 1 до 10 км при отсутствии осадков обычно наблюдается дымка, при ухудшении видимости до 1 км и менее - туман. В сухую погоду видимость может ухудшаться дымом, пылью или мглою.
Явления - указаны атмосферные явления, наблюдавшиеся в срок или в последний час перед сроком; фигурными скобками обозначены явления, наблюдавшиеся между сроками (за 1-3 часа до срока); квадратными скобками обозначены град или гололедные отложения с указанием их диаметра в мм.
Облачность - указаны через наклонную черту общая и нижняя облачность в баллах и высота нижней границы облаков в метрах; квадратными скобками обозначены формы облаков: Ci - перистые, Cs - перисто-слоистые, Cc - перисто-кучевые, Ac - высококучевые, As - высокослоистые, Sc - слоисто-кучевые, Ns - слоисто-дождевые, Cu - кучевые, Cb - кучево-дождевые. Подробнее классификацию облаков см. в Атласе облаков (PDF).
T - Температура воздуха - температура, измеренная на высоте 2 м над землей.
Td - Температура точки росы - температура, при понижении до которой содержащийся в воздухе водяной пар достигнет насыщения.
f - Относительная влажность воздуха - влажноcть воздуха, измеренная на высоте 2 м над землей.
Te - Эффективная температура - температура, которую ощущает одетый по сезону человек в тени. Характеристика душности погоды. При расчете учитывается влияние влажности воздуха и скорости ветра на теплоощущения человека.
Tes - Эффективная температура на солнце - температура, которую ощущает человек, с поправкой на солнечный нагрев. Характеристика знойности погоды. Зависит от высоты солнца над горизонтом, облачности и скорости ветра. Ночью, в пасмурную погоду, а также при ветре 12 м/с и более поправка равна нулю.
P - Атмосферное давление - приведенное к уровню моря атмосферное давление.
Po - Атмосферное давление - измеренное на уровне метеостанции атмосферное давление.
Tmin - Минимальная температура - минимум температуры воздуха на высоте 2 м над землей.
Tmax - Максимальная температура - максимум температуры воздуха на высоте 2 м над землей.
R - Количество осадков - Количество выпавших осадков за период времени, мм. При наведении курсора мыши на число - период времени, за который выпало указанное количество осадков.
R24 - Количество осадков - Количество выпавших осадков за 24 часа, мм.
S - Снежный покров - Высота снежного покрова, см. При наведении курсора мыши на число - состояние снежного покрова и степень покрытия местности в баллах.